User: anonymous   Login
Location: Hastringsfeld
(50.9620°N, 10.4787°E)
Time: 13:48:12
(UTC+00:00)
Language:

USA 215 - Orbit

View from above orbital plane
View from above orbital plane
View from above satellite
View from above satellite

Ground track
Ground track

The orbit data is extracted from the following two-line orbital elements,

1 37162U 10046A   24061.83050425 0.00000000  00000-0  00000-0 0    03
2 37162 122.9989 217.6395 0001214 125.7816 234.2184 13.41471662    01
Epoch (UTC): 01 March 2024 19:55:55
Eccentricity: 0.0001214
inclination: 122.9989°
perigee height: 1103 km
apogee height: 1105 km
right ascension of ascending node: 217.6395°
argument of perigee: 125.7816°
revolutions per day: 13.41471662
mean anomaly at epoch: 234.2184°
orbit number at epoch: 0

The dashed part of the orbit path shows where the satellite is in the earth's shadow,  

DLR